Terminal Aerodrome Forecast
Issued by NWS

Home | Current Version | Previous Version | Text Only | Print | Product List | Glossary On
Versions: 1 2 3 4 5 6 7 8 9 10 11 12 13 14 15 16 17 18 19 20 21 22 23 24 25 26 27 28 29 30 31 32 33 34 35 36 37 38 39 40 41 42 43 44 45 46 47 48 49 50
000
FTAK31 PANC 191301 AAA
TAFASN
TAF AMD
PASN 191301Z 1913/2012 36005KT P6SM BKN025
      TEMPO 1913/1916 SCT025
     FM191800 22007KT P6SM BKN050
     FM200400 31008KT P6SM -SHSN OVC025=

USA.gov is the U.S. government's official web portal to all federal, state and local government web resources and services.